Regional Weather Roundup
Issued by NWS

Home | Current Version | Previous Version | Graphics & Text | Print | Product List | Glossary Off
Versions: 1 2 3 4 5 6 7 8 9 10 11 12 13 14 15 16 17 18 19 20 21 22 23 24 25 26 27 28 29 30 31 32 33 34 35 36 37 38 39 40 41 42 43 44 45 46 47 48 49 50

000
ASUS43 KLMK 042302
RWRKY
KENTUCKY REGIONAL WEATHER ROUNDUP
NATIONAL WEATHER SERVICE LOUISVILLE KY
600 PM EST WED MAR 04 2015

NOTE "FAIR" INDICATES FEW OR NO CLOUDS BELOW 12,000 FEET
WITH NO SIGNIFICANT WEATHER AND/OR OBSTRUCTIONS TO VISIBILITY.

KYZ001>023-026-027-061>063-070>075-050000-
WESTERN AND SOUTH CENTRAL KENTUCKY

CITY           SKY/WX    TMP DP  RH WIND       PRES   REMARKS
PADUCAH        NOT AVBL
HENDERSON      NOT AVBL
OWENSBORO      NOT AVBL
HOPKINSVILLE   SLEET     30  28  93 N12       30.09R WCI  21
BOWLING GREEN  NOT AVBL
GLASGOW        NOT AVBL
$$

KYZ024-025-028>034-038-045-046-053-050000-
NORTH CENTRAL KENTUCKY

CITY           SKY/WX    TMP DP  RH WIND       PRES   REMARKS
LOUISVILLE/SDF NOT AVBL
LOUISVILLE/LOU LGT SNOW  30  28  93 N14       30.08R VSB 3/4 WCI  20
FORT KNOX      NOT AVBL
$$

KYZ035>037-039>044-047>052-055>060-089>105-050000-
NORTHEAST KENTUCKY

CITY           SKY/WX    TMP DP  RH WIND       PRES   REMARKS
LEXINGTON      NOT AVBL
COVINGTON      LGT SNOW  30  28  93 NW15G22   30.05R VSB 1   WCI  19
FRANKFORT      LGT SNOW  33  30  88 N9        30.02S FOG     WCI  25
$$

KYZ054-064>069-076>088-106>120-050000-
SOUTHEAST KENTUCKY

CITY           SKY/WX    TMP DP  RH WIND       PRES   REMARKS
JACKSON        NOT AVBL
LONDON         NOT AVBL
SOMERSET       NOT AVBL
MIDDLESBORO    NOT AVBL
MONTICELLO     NOT AVBL
$$



USA.gov is the U.S. government's official web portal to all federal, state and local government web resources and services.